| time (UTC) | temp C | wind direction | speed KPH | gust KPH | rain 1hr cm | rain 24hr cm | rain mn cm | humidity % | barometer mb |
| 20260509185227 | -17 | 0 | 0.0 | 0.0 | 0.00 | 0.25 | 0.00 | 100 | |
| 20260509184227 | -17 | 0 | 0.0 | 0.0 | 0.00 | 0.25 | 0.00 | 100 | |
| 20260509183226 | 14 | 225 | 9.7 | 9.7 | 0.03 | 0.25 | 0.25 | 72 | 1011.3 |
| 20260509182227 | 14 | 225 | 4.8 | 4.8 | 0.03 | 0.25 | 0.25 | 72 | 1011.2 |
| 20260509182129 | 14 | 236 | 4.8 | 6.4 | 0.03 | 0.25 | 0.25 | 73 | 1011.2 |
| 20260509181129 | -17 | 0 | 0.0 | 0.0 | 0.03 | 0.25 | 0.00 | 100 | |
| 20260509180126 | 13 | 270 | 1.6 | 1.6 | 0.03 | 0.25 | 0.25 | 75 | 1011.3 |
| 20260509175142 | 13 | 225 | 3.2 | 4.8 | 0.03 | 0.25 | 0.25 | 78 | 1011.3 |
| 20260509174127 | 13 | 270 | 1.6 | 1.6 | 0.03 | 0.25 | 0.25 | 78 | 1011.3 |
| 20260509173225 | 13 | 270 | 4.8 | 4.8 | 0.03 | 0.23 | 0.23 | 81 | 1011.3 |
| 20260509172242 | -17 | 0 | 0.0 | 0.0 | 0.03 | 0.23 | 0.00 | 100 | |
| 20260509170326 | 13 | 202 | 1.6 | 1.6 | 0.03 | 0.23 | 0.23 | 82 | 1010.9 |
| 20260509165329 | 13 | 225 | 4.8 | 4.8 | 0.03 | 0.23 | 0.23 | 83 | 1010.8 |
| 20260509164426 | 13 | 261 | 9.7 | 14.5 | 0.05 | 0.23 | 0.23 | 85 | 1010.9 |
| 20260509163427 | 12 | 247 | 1.6 | 3.2 | 0.03 | 0.20 | 0.20 | 88 | 1010.8 |
| 20260509162526 | 12 | 247 | 0.0 | 1.6 | 0.03 | 0.20 | 0.20 | 89 | 1010.6 |
| 20260509161626 | 12 | 244 | 4.8 | 6.4 | 0.03 | 0.20 | 0.20 | 90 | 1010.6 |
| 20260509155628 | 11 | 202 | 3.2 | 6.4 | 0.05 | 0.20 | 0.20 | 91 | 1010.5 |
| 20260509154627 | 11 | 180 | 3.2 | 4.8 | 0.05 | 0.20 | 0.18 | 90 | 1010.2 |
| 20260509153628 | 10 | 202 | 3.2 | 4.8 | 0.03 | 0.18 | 0.18 | 91 | 1010.1 |
| 20260509150726 | 10 | 202 | 4.8 | 6.4 | 0.03 | 0.18 | 0.18 | 91 | 1010.5 |
| 20260509145726 | 10 | 180 | 0.0 | 4.8 | 0.03 | 0.15 | 0.15 | 92 | 1010.8 |
| 20260509145627 | 10 | 180 | 4.8 | 4.8 | 0.03 | 0.15 | 0.15 | 91 | 1010.7 |
| 20260509144627 | -17 | 0 | 0.0 | 0.0 | 0.03 | 0.15 | 0.00 | 100 | |
| 20260509142642 | -17 | 0 | 0.0 | 0.0 | 0.05 | 0.15 | 0.00 | 100 | |
| 20260509141729 | 10 | 180 | 3.2 | 3.2 | 0.05 | 0.15 | 0.15 | 90 | 1010.7 |
| 20260509140745 | 10 | 202 | 3.2 | 3.2 | 0.05 | 0.15 | 0.15 | 90 | 1010.8 |
| 20260509135728 | 10 | 202 | 3.2 | 3.2 | 0.05 | 0.13 | 0.13 | 90 | 1010.8 |
| 20260509134726 | 10 | 202 | 4.8 | 4.8 | 0.05 | 0.13 | 0.13 | 90 | 1010.9 |
| 20260509133727 | 10 | 225 | 0.0 | 0.0 | 0.05 | 0.13 | 0.13 | 90 | 1011.1 |
| 20260509132727 | 10 | 225 | 3.2 | 6.4 | 0.05 | 0.13 | 0.10 | 91 | 1011.1 |
| 20260509131627 | 10 | 225 | 0.0 | 0.0 | 0.05 | 0.10 | 0.10 | 90 | 1011.1 |
| 20260509130628 | 10 | 225 | 0.0 | 0.0 | 0.03 | 0.08 | 0.08 | 90 | 1011.1 |
| 20260509130544 | 10 | 225 | 0.0 | 0.0 | 0.03 | 0.08 | 0.08 | 90 | 1011.1 |
| 20260509125628 | 10 | 247 | 1.6 | 1.6 | 0.03 | 0.08 | 0.08 | 90 | 1011.2 |
| 20260509123628 | 10 | 202 | 3.2 | 4.8 | 0.03 | 0.08 | 0.08 | 90 | 1011.2 |
| 20260509122626 | 10 | 202 | 3.2 | 3.2 | 0.05 | 0.08 | 0.08 | 91 | 1011.3 |
| 20260509121629 | 10 | 202 | 3.2 | 4.8 | 0.03 | 0.05 | 0.05 | 91 | 1011.3 |
| 20260509121527 | 10 | 202 | 1.6 | 3.2 | 0.03 | 0.05 | 0.05 | 90 | 1011.2 |
| 20260509115527 | 10 | 202 | 3.2 | 3.2 | 0.03 | 0.05 | 0.05 | 89 | 1011.2 |
| 20260509113627 | 10 | 202 | 1.6 | 1.6 | 0.05 | 0.05 | 0.05 | 89 | 1011.2 |
| 20260509112626 | 10 | 202 | 1.6 | 1.6 | 0.03 | 0.03 | 0.03 | 89 | 1011.1 |
| 20260509110616 | 10 | 202 | 1.6 | 1.6 | 0.03 | 0.03 | 0.03 | 88 | 1011.1 |
| 20260509105615 | 10 | 202 | 3.2 | 3.2 | 0.03 | 0.03 | 0.03 | 88 | 1011.2 |
| 20260509104712 | 10 | 202 | 1.6 | 1.6 | 0.03 | 0.03 | 0.03 | 88 | 1010.9 |
| 20260509104629 | 10 | 202 | 1.6 | 3.2 | 0.03 | 0.03 | 0.03 | 88 | 1011.0 |
| 20260509103614 | 10 | 202 | 1.6 | 1.6 | 0.00 | 0.00 | 0.00 | 88 | 1011.1 |
| 20260509102614 | 10 | 202 | 3.2 | 3.2 | 0.00 | 0.00 | 0.00 | 87 | 1011.2 |
| 20260509101713 | -17 | 0 | 0.0 | 0.0 | 0.00 | 0.00 | 0.00 | 100 | |
| 20260509100715 | -17 | 0 | 0.0 | 0.0 | 0.00 | 0.00 | 0.00 | 100 | |
| 20260509100628 | -17 | 0 | 0.0 | 0.0 | 0.00 | 0.00 | 0.00 | 100 | |
| 20260509095713 | -17 | 0 | 0.0 | 0.0 | 0.00 | 0.00 | 0.00 | 100 | |
| 20260509094812 | -17 | 0 | 0.0 | 0.0 | 0.00 | 0.00 | 0.00 | 100 | |
| 20260509092828 | -17 | 0 | 0.0 | 0.0 | 0.00 | 0.00 | 0.00 | 100 | |
| 20260509091828 | -17 | 0 | 0.0 | 0.0 | 0.00 | 0.00 | 0.00 | 100 | |
| 20260509090915 | -17 | 0 | 0.0 | 0.0 | 0.00 | 0.00 | 0.00 | 100 | |
| 20260509085928 | -17 | 0 | 0.0 | 0.0 | 0.00 | 0.00 | 0.00 | 100 | |
| 20260509085015 | -17 | 0 | 0.0 | 0.0 | 0.00 | 0.00 | 0.00 | 100 | |
| 20260509084913 | -17 | 0 | 0.0 | 0.0 | 0.00 | 0.00 | 0.00 | 100 | |
| 20260509083929 | -17 | 0 | 0.0 | 0.0 | 0.00 | 0.00 | 0.00 | 100 | |
| 20260509083813 | -17 | 0 | 0.0 | 0.0 | 0.00 | 0.00 | 0.00 | 100 | |
| 20260509082813 | -17 | 0 | 0.0 | 0.0 | 0.00 | 0.00 | 0.00 | 100 | |
| 20260509082714 | -17 | 0 | 0.0 | 0.0 | 0.00 | 0.00 | 0.00 | 100 | |
| 20260509080828 | -17 | 0 | 0.0 | 0.0 | 0.00 | 0.00 | 0.00 | 100 | |
| 20260509075913 | -17 | 0 | 0.0 | 0.0 | 0.00 | 0.00 | 0.00 | 100 | |
| 20260509075815 | -17 | 0 | 0.0 | 0.0 | 0.00 | 0.00 | 0.00 | 100 | |
| 20260509074715 | -17 | 0 | 0.0 | 0.0 | 0.00 | 0.00 | 0.00 | 100 | |
| 20260509073811 | -17 | 0 | 0.0 | 0.0 | 0.00 | 0.00 | 0.00 | 100 | |
| 20260509072830 | -17 | 0 | 0.0 | 0.0 | 0.00 | 0.00 | 0.00 | 100 | |
| 20260509071916 | -17 | 0 | 0.0 | 0.0 | 0.00 | 0.00 | 0.00 | 100 | |
| 20260509070113 | -17 | 0 | 0.0 | 0.0 | 0.00 | 0.00 | 0.00 | 100 | |
| 20260509062214 | -17 | 0 | 0.0 | 0.0 | 0.00 | 0.00 | 0.00 | 100 | |
| 20260509061313 | -17 | 0 | 0.0 | 0.0 | 0.00 | 0.00 | 0.00 | 100 | |
| 20260509061214 | -17 | 0 | 0.0 | 0.0 | 0.00 | 0.00 | 0.00 | 100 | |
| 20260509060312 | -17 | 0 | 0.0 | 0.0 | 0.00 | 0.00 | 0.00 | 100 | |
| 20260509054315 | -17 | 0 | 0.0 | 0.0 | 0.00 | 0.00 | 0.00 | 100 | |
| 20260509054229 | -17 | 0 | 0.0 | 0.0 | 0.00 | 0.00 | 0.00 | 100 | |
| 20260509052313 | -17 | 0 | 0.0 | 0.0 | 0.00 | 0.00 | 0.00 | 100 | |
| 20260509051228 | -17 | 0 | 0.0 | 0.0 | 0.00 | 0.00 | 0.00 | 100 | |
| 20260509050214 | -17 | 0 | 0.0 | 0.0 | 0.00 | 0.00 | 0.00 | 100 | |
| 20260509050131 | -17 | 0 | 0.0 | 0.0 | 0.00 | 0.00 | 0.00 | 100 | |
| 20260509045212 | -17 | 0 | 0.0 | 0.0 | 0.00 | 0.00 | 0.00 | 100 | |
| 20260509044230 | -17 | 0 | 0.0 | 0.0 | 0.00 | 0.00 | 0.00 | 100 | |
| 20260509043316 | -17 | 0 | 0.0 | 0.0 | 0.00 | 0.00 | 0.00 | 100 | |
| 20260509043230 | -17 | 0 | 0.0 | 0.0 | 0.00 | 0.00 | 0.00 | 100 | |
| 20260509042230 | -17 | 0 | 0.0 | 0.0 | 0.00 | 0.00 | 0.00 | 100 | |
| 20260509042130 | -17 | 0 | 0.0 | 0.0 | 0.00 | 0.00 | 0.00 | 100 | |
| 20260509042013 | -17 | 0 | 0.0 | 0.0 | 0.00 | 0.00 | 0.00 | 100 | |
| 20260509041112 | -17 | 0 | 0.0 | 0.0 | 0.00 | 0.00 | 0.00 | 100 | |
| 20260509041030 | -17 | 0 | 0.0 | 0.0 | 0.00 | 0.00 | 0.00 | 100 | |
| 20260509040113 | -17 | 0 | 0.0 | 0.0 | 0.00 | 0.00 | 0.00 | 100 | |
| 20260509035127 | -17 | 0 | 0.0 | 0.0 | 0.00 | 0.00 | 0.00 | 100 | |
| 20260509034142 | -17 | 0 | 0.0 | 0.0 | 0.00 | 0.00 | 0.00 | 100 | |
| 20260509033127 | -17 | 0 | 0.0 | 0.0 | 0.00 | 0.00 | 0.00 | 100 | |
| 20260509032145 | -17 | 0 | 0.0 | 0.0 | 0.00 | 0.00 | 0.00 | 100 | |
| 20260509031227 | -17 | 0 | 0.0 | 0.0 | 0.00 | 0.00 | 0.00 | 100 | |
| 20260509030327 | -17 | 0 | 0.0 | 0.0 | 0.00 | 0.00 | 0.00 | 100 | |
| 20260509025328 | -17 | 0 | 0.0 | 0.0 | 0.00 | 0.00 | 0.00 | 100 | |
| 20260509024327 | -17 | 0 | 0.0 | 0.0 | 0.00 | 0.00 | 0.00 | 100 | |
| 20260509023244 | -17 | 0 | 0.0 | 0.0 | 0.00 | 0.00 | 0.00 | 100 | |
| 20260509021227 | -17 | 0 | 0.0 | 0.0 | 0.00 | 0.00 | 0.00 | 100 | |
| 20260509020227 | -17 | 0 | 0.0 | 0.0 | 0.00 | 0.00 | 0.00 | 100 | |
| 20260509015242 | -17 | 0 | 0.0 | 0.0 | 0.00 | 0.00 | 0.00 | 100 | |
| 20260509014327 | -17 | 0 | 0.0 | 0.0 | 0.00 | 0.00 | 0.00 | 100 | |
| 20260509013325 | -17 | 0 | 0.0 | 0.0 | 0.00 | 0.00 | 0.00 | 100 | |
| 20260509010446 | -17 | 0 | 0.0 | 0.0 | 0.00 | 0.00 | 0.00 | 100 | |
| 20260509005427 | -17 | 0 | 0.0 | 0.0 | 0.00 | 0.00 | 0.00 | 100 | |
| 20260509004428 | -17 | 0 | 0.0 | 0.0 | 0.00 | 0.00 | 0.00 | 100 | |
| 20260509004344 | -17 | 0 | 0.0 | 0.0 | 0.00 | 0.00 | 0.00 | 100 | |
| 20260509003344 | -17 | 0 | 0.0 | 0.0 | 0.00 | 0.00 | 0.00 | 100 | |
| 20260509002426 | -17 | 0 | 0.0 | 0.0 | 0.00 | 0.00 | 0.00 | 100 | |
| 20260509001428 | -17 | 0 | 0.0 | 0.0 | 0.00 | 0.00 | 0.00 | 100 | |
| 20260509001343 | -17 | 0 | 0.0 | 0.0 | 0.00 | 0.00 | 0.00 | 100 | |
| 20260509000426 | -17 | 0 | 0.0 | 0.0 | 0.00 | 0.00 | 0.00 | 100 | |
| 20260509000326 | -17 | 0 | 0.0 | 0.0 | 0.00 | 0.00 | 0.00 | 100 | |
| 20260508235343 | -17 | 0 | 0.0 | 0.0 | 0.00 | 0.00 | 0.00 | 100 | |
| 20260508234342 | -17 | 0 | 0.0 | 0.0 | 0.00 | 0.00 | 0.00 | 100 | |
| 20260508233425 | -17 | 0 | 0.0 | 0.0 | 0.00 | 0.00 | 0.00 | 100 | |
| 20260508232429 | -17 | 0 | 0.0 | 0.0 | 0.00 | 0.00 | 0.00 | 100 | |
| 20260508232349 | -17 | 0 | 0.0 | 0.0 | 0.00 | 0.00 | 0.00 | 100 | |
| 20260508231416 | 13 | 45 | 6.4 | 6.4 | 0.00 | 0.00 | 0.00 | 65 | 1012.4 |
| 20260508230430 | -17 | 0 | 0.0 | 0.0 | 0.00 | 0.00 | 0.00 | 100 | |
| 20260508225530 | -17 | 0 | 0.0 | 0.0 | 0.00 | 0.00 | 0.00 | 100 | |
| 20260508223615 | -17 | 0 | 0.0 | 0.0 | 0.00 | 0.00 | 0.00 | 100 | |
| 20260508222632 | -17 | 0 | 0.0 | 0.0 | 0.00 | 0.00 | 0.00 | 100 | |
| 20260508220730 | -17 | 0 | 0.0 | 0.0 | 0.00 | 0.00 | 0.00 | 100 | |
| 20260508215814 | -17 | 0 | 0.0 | 0.0 | 0.00 | 0.00 | 0.00 | 100 | |
| 20260508215731 | -17 | 0 | 0.0 | 0.0 | 0.00 | 0.00 | 0.00 | 100 | |
| 20260508213715 | -17 | 0 | 0.0 | 0.0 | 0.00 | 0.00 | 0.00 | 100 | |
| 20260508212814 | -17 | 0 | 0.0 | 0.0 | 0.00 | 0.00 | 0.00 | 100 | |
| 20260508211834 | -17 | 0 | 0.0 | 0.0 | 0.00 | 0.00 | 0.00 | 100 | |
| 20260508210931 | -17 | 0 | 0.0 | 0.0 | 0.00 | 0.00 | 0.00 | 100 | |
| 20260508210016 | -17 | 0 | 0.0 | 0.0 | 0.00 | 0.00 | 0.00 | 100 | |
| 20260508205016 | -17 | 0 | 0.0 | 0.0 | 0.00 | 0.00 | 0.00 | 100 | |
| 20260508204933 | -17 | 0 | 0.0 | 0.0 | 0.00 | 0.00 | 0.00 | 100 | |
| 20260508204016 | 13 | 270 | 0.0 | 0.0 | 0.00 | 0.00 | 0.00 | 60 | 1013.1 |
| 20260508203036 | -17 | 0 | 0.0 | 0.0 | 0.00 | 0.00 | 0.00 | 100 | |
| 20260508202030 | -17 | 0 | 0.0 | 0.0 | 0.00 | 0.00 | 0.00 | 100 | |
| 20260508201018 | -17 | 0 | 0.0 | 0.0 | 0.00 | 0.00 | 0.00 | 100 | |
| 20260508200932 | -17 | 0 | 0.0 | 0.0 | 0.00 | 0.00 | 0.00 | 100 | |
| 20260508194031 | -17 | 0 | 0.0 | 0.0 | 0.00 | 0.00 | 0.00 | 100 | |
| 20260508193033 | -17 | 0 | 0.0 | 0.0 | 0.00 | 0.00 | 0.00 | 100 | |
| 20260508190927 | -17 | 0 | 0.0 | 0.0 | 0.00 | 0.00 | 0.00 | 100 |